Location: Peterborough
(44.3091°N, 78.3197°W)
Time: 17:24:26
(UTC-04:00)

Transit 4A - Pass Details

Date: 25 March 2023
Orbit: 864 x 980 km, 66.8° (Epoch: 04 June)

Event Time Altitude Azimuth Distance (km) Brightness Sun altitude
Rises 07:00:56 0° 192° (SSW) 3,428 10.7 -2.0°
Reaches altitude 10° 07:03:27 10° 187° (S) 2,497 10.1 -1.6°
Maximum altitude 07:08:57 48° 114° (ESE) 1,120 9.0 -0.6°
Drops below altitude 10° 07:14:35 10° 41° (NE) 2,552 10.9 0.4°
Sets 07:17:10 0° 37° (NE) 3,510 11.5 0.9°
